This demonstration page uses our WeatherBlox Daily Observations layout. Learn more.

Left ArrowRight Arrow

34.02893, -84.19858

Hourly Observations for January 29, 2018

Temp ( °F °C ) Dew Point ( °F °C ) Humidity (%) Winds ( mph kmh ) Pressure ( in mb ) Visibility ( mi km ) Precip ( " mm )
12:03 am 00:03 Cloudy with Mist and Fog 53 11.7 52 11.1 96 96 NNW 3 6 30.09 1019 4 6 0.00 0.00
12:12 am 00:12 Cloudy with Mist and Fog 53 11.7 52 11.1 96 96 NW 7 11 30.09 1019 4 6 0.00 0.00
12:37 am 00:37 Cloudy with Light Rain 53 11.7 52 11.1 96 96 NW 7 11 30.09 1019 3 4 0.01 0.25
12:44 am 00:44 Cloudy with Light Rain 53 11.7 51 10.6 93 93 NW 7 11 30.09 1019 3 5 0.01 0.25
12:53 am 00:53 Cloudy with Light Rain 52 11.1 51 10.6 97 97 NNW 8 13 30.09 1019 4 6 0.01 0.25
1:20 am 01:20 Cloudy with Light Rain 52 11.1 51 10.6 97 97 N 5 7 30.06 1018 3 5 0.00 0.03
1:30 am 01:30 Cloudy with Light Rain 52 11.1 51 10.6 97 97 N 6 9 30.06 1018 3 5 0.00 0.03
1:53 am 01:53 Cloudy with Mist and Fog 52 11.1 51 10.6 97 97 N 5 7 30.07 1018 4 6 0.01 0.25
2:45 am 02:45 Cloudy 52 11.1 51 10.6 97 97 NNW 5 7 30.06 1018 10 16 0.00 0.00
2:53 am 02:53 Cloudy 52 11.1 51 10.6 97 97 NNW 5 7 30.05 1018 10 16 0.00 0.00
3:14 am 03:14 Cloudy 52 11.1 51 10.6 97 97 N 3 6 30.06 1018 10 16 0.00 0.00
3:53 am 03:53 Cloudy 51 10.6 50 10 96 96 NW 6 9 30.05 1018 10 16 0.00 0.00
4:49 am 04:49 Cloudy 50 10 48 9 94 94 NW 7 11 30.03 1017 8 13 0.00 0.00
4:53 am 04:53 Cloudy 50 10 48 8.9 93 93 NW 8 13 30.04 1017 7 11 0.00 0.00
5:50 am 05:50 Cloudy 48 9 46 8 94 94 NW 12 19 30.06 1018 8 13 0.00 0.03
5:53 am 05:53 Cloudy 48 8.9 47 8.3 96 96 NW 12 19 30.06 1018 9 14 0.00 0.03
6:20 am 06:20 Cloudy 48 8.9 46 7.8 93 93 WNW 10 17 30.06 1018 10 16 0.00 0.00
6:53 am 06:53 Cloudy 47 8.3 45 7.2 93 93 WNW 14 22 30.08 1019 10 16 0.00 0.00
7:53 am 07:53 Cloudy 45 7.2 43 6.1 93 93 NW 12 19 30.10 1019 10 16 0.00 0.00
8:37 am 08:37 Partly Cloudy 46 7.8 43 6.1 89 89 NW 12 19 30.12 1020 10 16 0.00 0.00
8:51 am 08:51 Mostly Cloudy 46 8 43 6 87 87 NW 14 22 30.12 1020 10 16 0.00 0.00
8:53 am 08:53 Mostly Cloudy 46 7.8 43 6.1 89 89 NW 12 19 30.11 1020 10 16 0.00 0.00
9:02 am 09:02 Mostly Cloudy 46 7.8 43 6.1 89 89 NW 13 20 30.12 1020 10 16 0.00 0.00
9:38 am 09:38 Partly Cloudy 47 8.3 42 5.6 83 83 NW 12 19 30.15 1021 10 16 0.00 0.00
9:53 am 09:53 Mostly Sunny 48 8.9 42 5.6 80 80 NW 16 26 30.12 1020 10 16 0.00 0.00
10:53 am 10:53 Sunny 50 10 38 3.3 63 63 NNW 16 26 30.12 1020 10 16 0.00 0.00
11:53 am 11:53 Sunny 52 11.1 33 0.6 49 49 NW 12 19 30.11 1020 10 16 0.00 0.00
12:53 pm 12:53 Sunny 56 13.3 28 -2.2 34 34 NNW 12 19 30.08 1019 10 16 0.00 0.00
1:53 pm 13:53 Sunny 55 12.8 30 -1.1 38 38 WNW 14 22 30.08 1019 10 16 0.00 0.00
2:53 pm 14:53 Sunny 56 13.3 28 -2.2 34 34 NW 16 26 30.06 1018 10 16 0.00 0.00
3:53 pm 15:53 Sunny 56 13.3 25 -3.9 30 30 NW 15 24 30.07 1018 10 16 0.00 0.00
4:53 pm 16:53 Sunny 54 12.2 23 -5 30 30 NW 17 28 30.09 1019 10 16 0.00 0.00
5:53 pm 17:53 Sunny 51 10.6 24 -4.4 35 35 NNW 10 17 30.11 1020 10 16 0.00 0.00
6:53 pm 18:53 Mostly Clear 49 9.4 25 -3.9 39 39 WNW 3 6 30.13 1020 10 16 0.00 0.00
7:53 pm 19:53 Clear 47 8.3 26 -3.3 44 44 WNW 5 7 30.15 1021 10 16 0.00 0.00
8:53 pm 20:53 Clear 47 8.3 25 -3.9 42 42 WNW 10 17 30.16 1021 10 16 0.00 0.00
9:53 pm 21:53 Clear 46 7.8 25 -3.9 44 44 NW 10 17 30.18 1022 10 16 0.00 0.00
10:53 pm 22:53 Clear 43 6.1 30 -1.1 60 60 NNW 18 30 30.20 1023 10 16 0.00 0.00
11:53 pm 23:53 Clear 39 3.9 29 -1.7 67 67 NW 16 26 30.23 1024 10 16 0.00 0.00

Powered by AerisWeather